Location: Clanezzo
(45.7500°N, 9.6000°E)
Time: 14:03:58
(UTC+00:00)

Cosmos 2228 Rocket - Pass Details

Date: 12 May 2021
Orbit: 618 x 651 km, 82.5° (Epoch: 19 June)

Event Time Altitude Azimuth Distance (km) Brightness Sun altitude
Exits shadow 20:29:51 27° 129° (SE) 1,215 4.0 -15.4°
Maximum altitude 20:31:21 34° 91° (E) 1,033 3.8 -15.6°
Drops below altitude 10° 20:35:24 10° 26° (NNE) 2,024 6.0 -16.1°
Sets 20:37:48 0° 18° (NNE) 2,943 7.0 -16.3°
